Flag for Canada Weather past 2 weeks in Paradise, Newfoundland and Labrador, Canada

Now
59 °F

Scattered clouds.


Feels Like: 58 °F
Forecast: 51 / 70 °F
Wind: 8 mph from Southwest

Location: St. John's

Current Time: Sep 3, 2015 at 9:21:01 AM

Latest Report: Sep 3, 2015 at 8:30 AM


Visibility: 15 mi

Pressure: 29.75 "Hg

Humidity: 94%

Dew point: 57 °F

Location of ParadiseLocation

Historic Weather in Paradise — Graph

°F

Paradise temperature yesterday

Maximum temperature yesterday: 52 °F (at 12:30 AM)
Minimum temperature yesterday: 45 °F (at 10:30 PM)
Average temperature yesterday: 49 °F

Past Weeks' High & Low Weather Summary

 TemperatureHumidityPressure
High81 °F (Aug 22, 2:30 PM)100% (Aug 21, 7:23 AM)30.43 "Hg (Aug 21, 7:23 AM)
Low45 °F (Sep 2, 10:30 PM)38% (Aug 30, 12:30 PM)29.47 "Hg (Sep 1, 3:30 PM)
Average61 °F86%30.04 "Hg
* Reported Aug 19 7:30 AM — Sep 3 7:30 AM, Paradise, Weather by CustomWeather, © 2015

Note: Actual official high and low records may vary slightly from our data, if they occured in-between our weather recording intervals... More about our weather records

Advertising

Paradise weather history for previous 24 hours

 ConditionsComfort  
Time TempWeatherWind HumidityBarometerVisibility
7:30 AM
Thu, Sep 3
55 °FScattered clouds.10 mph94%29.74 "Hg15 mi
6:30 AM52 °FPassing clouds.9 mph94%29.74 "Hg15 mi
5:30 AM52 °FPassing clouds.14 mph94%29.73 "Hg15 mi
4:30 AM50 °FPassing clouds.12 mph94%29.73 "Hg15 mi
3:30 AM48 °FPassing clouds.8 mph87%29.73 "Hg15 mi
2:30 AM45 °FPassing clouds.9 mph93%29.74 "Hg15 mi
1:30 AM45 °FPassing clouds.6 mph93%29.74 "Hg15 mi
12:30 AM45 °FPassing clouds.7 mph93%29.75 "Hg15 mi
11:30 PM
Wed, Sep 2
46 °FPassing clouds.7 mph87%29.75 "Hg15 mi
10:30 PM45 °FPassing clouds.9 mph93%29.75 "Hg15 mi
9:30 PM46 °FPassing clouds.9 mph87%29.75 "Hg15 mi
8:30 PM48 °FPassing clouds.10 mph87%29.75 "Hg15 mi
7:30 PM50 °FScattered clouds.15 mph88%29.74 "Hg15 mi
6:30 PM52 °FMore clouds than sun.14 mph82%29.73 "Hg15 mi
5:30 PM52 °FOvercast.18 mph82%29.72 "Hg15 mi
4:30 PM52 °FMostly cloudy.21 mph82%29.72 "Hg15 mi
3:30 PM50 °FMostly cloudy.18 mph88%29.72 "Hg15 mi
2:30 PM50 °FLow clouds.16 mph88%29.72 "Hg12 mi
1:30 PM50 °FDrizzle. Low clouds.20 mph88%29.72 "Hg12 mi
12:30 PM50 °FMostly cloudy.23 mph88%29.72 "Hg15 mi
11:30 AM50 °FDrizzle. Mostly cloudy.20 mph94%29.71 "Hg15 mi
10:30 AM50 °FDrizzle. Low clouds.24 mph88%29.72 "Hg7 mi
9:30 AM48 °FDrizzle. Low clouds.20 mph94%29.70 "Hg10 mi
Weather by CustomWeather, © 2015

See weather overviewHow to use our weather pages